Location: Gajan
(43.0218°N, 1.1244°E)
Time: 08:02:40
(UTC+00:00)

Resurs 01 Rocket - Pass Details

Date: 22 April 2021
Orbit: 634 x 644 km, 97.9° (Epoch: 07 May)

Event Time Altitude Azimuth Distance (km) Brightness Sun altitude
Exits shadow 20:46:10 29° 185° (S) 1,181 2.7 -19.9°
Maximum altitude 20:48:20 65° 259° (W) 713 1.9 -20.2°
Drops below altitude 10° 20:52:47 10° 341° (NNW) 2,050 5.1 -20.8°
Sets 20:55:01 0° 345° (NNW) 2,963 6.0 -21.1°
